Tracking 25701 objects as of 4-Jul-2022
HD Live streaming from Space Station
objects crossing your sky now

ATLAS 5 CENTAUR DEB

Track ATLAS 5 CENTAUR DEB now!


NORAD ID: 43999
Int'l Code: 2014-055BE
Perigee: 8,494.0 km
Apogee: 34,756.0 km
Inclination: 21.2 °
Period: 777.0 minutes
Semi major axis: 27996 km
RCS: Unknown
Launch date: September 17, 2014
Source: United States (US)
Launch site: AIR FORCE EASTERN TEST RANGE (AFETR)

Note: This is SATELLITE DEBRIS
aabbcc
Your satellite tracking list
Your tracking list is empty




NASA's NSSDC Master Catalog

Two Line Element Set (TLE):
1 43999U 14055BE  22183.37870409 -.00000084  00000-0  00000-0 0  9996
2 43999  21.1973 287.0392 4690306 274.1040  35.7622  1.85335410 25907
Source of the keplerian elements: AFSPC